Flag for India Weather past 2 weeks in Tiruvarur, Tamil Nadu, India

73 °F


Feels Like: 70 °F
Forecast: 73 / 85 °F
Wind: No wind

Location: Tiruchchirapalli

Current Time: Nov 26, 2015 at 5:52:14 AM

Latest Report: Nov 26, 2015 at 5:00 AM

Visibility: 2 mi

Pressure: 29.86 "Hg

Humidity: 94%

Dew point: 72 °F

Location of TiruvarurLocation

Historic Weather in Tiruvarur — Graph


Tiruvarur temperature yesterday

Maximum temperature yesterday: 88 °F (at 2:00 PM)
Minimum temperature yesterday: 73 °F (at 6:30 AM)
Average temperature yesterday: 80 °F

Past Weeks' High & Low Weather Summary

High90 °F (Nov 12, 3:40 PM)100% (Nov 11, 4:10 AM)29.95 "Hg (Nov 11, 4:10 AM)
Low70 °F (Nov 15, 5:30 AM)52% (Nov 25, 2:00 PM)29.68 "Hg (Nov 16, 2:00 PM)
Average79 °F84%29.82 "Hg
* Reported Nov 11 4:10 AM — Nov 26 4:00 AM, Tiruvarur, Weather by CustomWeather, © 2015

Note: Actual official high and low records may vary slightly from our data, if they occured in-between our weather recording intervals... More about our weather records


Tiruvarur weather history for previous 24 hours

Time TempWeatherWind HumidityBarometerVisibility
4:00 AM
Thu, Nov 26
73 °FFog.No wind94%29.86 "Hg2 mi
3:30 AM73 °FFog.No wind94%29.86 "Hg2 mi
3:00 AM73 °FFog.No wind94%29.86 "Hg2 mi
2:00 AM75 °FFog.No wind89%29.89 "Hg2 mi
1:30 AM75 °FFog.No wind89%29.89 "Hg2 mi
1:00 AM75 °FFog.No wind89%29.89 "Hg2 mi
12:30 AM75 °FFog.No wind89%29.92 "Hg2 mi
12:00 AM75 °FFog.No wind89%29.92 "Hg2 mi
11:00 PM
Wed, Nov 25
75 °FFog.No wind94%29.92 "Hg2 mi
10:30 PM77 °FFog.No wind89%29.92 "Hg2 mi
10:00 PM77 °FFog.2 mph94%29.92 "Hg3 mi
9:00 PM77 °FPassing clouds.3 mph94%29.89 "Hg4 mi
8:30 PM77 °FPassing clouds.3 mph94%29.89 "Hg4 mi
8:00 PM82 °FPassing clouds.3 mph66%29.89 "Hg4 mi
7:30 PM82 °FPassing clouds.5 mph66%29.89 "Hg4 mi
7:00 PM82 °FPassing clouds.6 mph66%29.86 "Hg4 mi
6:30 PM82 °FPassing clouds.6 mph66%29.83 "Hg4 mi
6:00 PM82 °FPassing clouds.5 mph66%29.83 "Hg4 mi
5:30 PM84 °FPassing clouds.7 mph62%29.83 "Hg5 mi
5:00 PM86 °FPassing clouds.9 mph62%29.80 "HgN/A
4:30 PM86 °FPassing clouds.12 mph62%29.80 "HgN/A
4:00 PM86 °FPassing clouds.9 mph59%29.80 "HgN/A
3:30 PM88 °FPassing clouds.10 mph55%29.80 "HgN/A
3:00 PM88 °FPassing clouds.12 mph55%29.80 "HgN/A
2:30 PM88 °FPassing clouds.10 mph55%29.80 "HgN/A
2:00 PM88 °FPassing clouds.10 mph52%29.80 "HgN/A
1:30 PM86 °FPassing clouds.13 mph55%29.83 "Hg5 mi
12:30 PM86 °FClear.13 mph62%29.86 "Hg5 mi
11:30 AM84 °FPassing clouds.13 mph66%29.89 "Hg4 mi
11:00 AM82 °FPassing clouds.10 mph79%29.92 "Hg4 mi
10:30 AM82 °FFog.10 mph79%29.92 "Hg3 mi
10:00 AM82 °FFog.10 mph79%29.92 "Hg2 mi
9:30 AM81 °FFog.10 mph79%29.92 "Hg2 mi
9:00 AM81 °FFog.10 mph79%29.92 "Hg2 mi
8:30 AM79 °FFog.10 mph84%29.92 "Hg2 mi
8:00 AM79 °FFog.9 mph79%29.92 "Hg1 mi
7:30 AM77 °FFog.9 mph83%29.89 "Hg1 mi
7:00 AM75 °FFog.6 mph94%29.89 "Hg1 mi
6:30 AM73 °FFog.7 mph94%29.86 "Hg1 mi
6:00 AM75 °FFog.6 mph89%29.86 "Hg2 mi
5:30 AM75 °FFog.7 mph89%29.86 "Hg2 mi
5:00 AM75 °FFog.6 mph94%29.83 "Hg2 mi
Weather by CustomWeather, © 2015

See weather overviewHow to use our weather pages